Weather History for LTAI - July, 2013

Change the Weather History Date:

Monday, July 1, 2013

  Actual Average Record
Temperature  
Mean Temperature 78 °F -  
Max Temperature 86 °F 93 °F 102 °F (1998)
Min Temperature 70 °F 72 °F 64 °F (2011)
Cooling Degree Days 13    
Growing Degree Days 28 (Base 50)    
Moisture  
Dew Point 66 °F    
Average Humidity 64    
Maximum Humidity 88    
Minimum Humidity 25    
Precipitation  
Precipitation 0.00 in 0.01 in - ()
Sea Level Pressure  
Sea Level Pressure 29.72 in    
Wind  
Wind Speed 6 mph ()    
Max Wind Speed 21 mph    
Max Gust Speed 32 mph    
Visibility 6.2 miles    
Events      
Averages and records for this station are not official NWS values.
T = Trace of Precipitation, MM = Missing Value Source: Averaged Metar Reports

Daily Weather History Graph

Daily Weather History Graph

Search for Another Location

Airport or City:

Trip Planner

Search our weather history database for the weather conditions in past years. The results will help you decide how hot, cold, wet, or windy it might be!

Date:

Astronomy

Jul. 01, 2013 Rise Set
Actual Time 5:41 AM EEST 8:20 PM EEST
Civil Twilight 5:10 AM EEST 8:50 PM EEST
Nautical Twilight 4:32 AM EEST 9:28 PM EEST
Astronomical Twilight 3:49 AM EEST 10:11 PM EEST
Moon 12:54 AM EEST (7/1) 2:20 PM EEST (7/1)
Length of Visible Light 15h 40m
Length of Day
14h 38m
Last Quarter, 38% of the Moon is Illuminated
Jul 1
Last Quarter
Jul 8
New
Jul 16
First Quarter
Jul 22
Full
Jul 29
Last Quarter

Hourly Weather History & Observations

Time (EEST) Temp. Heat Index Dew Point Humidity Pressure Visibility Wind Dir Wind Speed Gust Speed Precip Events Conditions
12:20 AM 75.2 °F - 68.0 °F 78% 29.74 in 6.2 mi ENE 3.5 mph - N/A   Scattered Clouds
12:50 AM 75.2 °F - 68.0 °F 78% 29.71 in 6.2 mi NE 4.6 mph - N/A   Scattered Clouds
1:20 AM 75.2 °F - 68.0 °F 78% 29.71 in 6.2 mi NE 3.5 mph - N/A   Scattered Clouds
1:50 AM 73.4 °F - 68.0 °F 83% 29.71 in 6.2 mi NE 3.5 mph - N/A   Scattered Clouds
2:20 AM 73.4 °F - 68.0 °F 83% 29.71 in 6.2 mi NE 3.5 mph - N/A   Scattered Clouds
2:50 AM 73.4 °F - 68.0 °F 83% 29.71 in 6.2 mi Variable 2.3 mph - N/A   Scattered Clouds
3:00 AM 73 °F - 68 °F 80% 29.70 in 6 mi NE 2.3 mph - -   Partly Cloudy
3:20 AM 73.4 °F - 68.0 °F 83% 29.71 in 6.2 mi NNW 4.6 mph - N/A   Scattered Clouds
3:50 AM 73.4 °F - 68.0 °F 83% 29.71 in 6.2 mi North 4.6 mph - N/A   Scattered Clouds
4:20 AM 71.6 °F - 68.0 °F 88% 29.71 in 6.2 mi NW 4.6 mph - N/A   Scattered Clouds
4:50 AM 71.6 °F - 68.0 °F 88% 29.71 in 6.2 mi North 3.5 mph - N/A   Scattered Clouds
5:20 AM 71.6 °F - 68.0 °F 88% 29.71 in 6.2 mi North 5.8 mph - N/A   Scattered Clouds
5:50 AM 71.6 °F - 68.0 °F 88% 29.71 in 6.2 mi NNW 4.6 mph - N/A   Scattered Clouds
6:20 AM 71.6 °F - 68.0 °F 88% 29.71 in 6.2 mi NNW 4.6 mph - N/A   Scattered Clouds
6:50 AM 73.4 °F - 68.0 °F 83% 29.74 in 6.2 mi NNW 4.6 mph - N/A   Scattered Clouds
7:20 AM 75.2 °F - 68.0 °F 78% 29.74 in 6.2 mi North 4.6 mph - N/A   Scattered Clouds
7:50 AM 77.0 °F - 66.2 °F 69% 29.74 in 6.2 mi North 5.8 mph - N/A   Scattered Clouds
8:20 AM 78.8 °F - 68.0 °F 69% 29.74 in 6.2 mi NNE 4.6 mph - N/A   Scattered Clouds
8:50 AM 80.6 °F 83.2 °F 68.0 °F 65% 29.74 in 6.2 mi NNE 4.6 mph - N/A   Scattered Clouds
9:00 AM 81 °F - 67 °F 54% 29.73 in 6 mi NNE 4.6 mph - -   Partly Cloudy
9:20 AM 80.6 °F 82.7 °F 66.2 °F 61% 29.74 in 6.2 mi Variable 3.5 mph - N/A   Scattered Clouds
9:50 AM 82.4 °F 83.9 °F 64.4 °F 54% 29.74 in 6.2 mi North 5.8 mph - N/A   Scattered Clouds
10:20 AM 84.2 °F 85.0 °F 62.6 °F 48% 29.74 in 6.2 mi Variable 4.6 mph - N/A   Scattered Clouds
10:50 AM 82.4 °F 85.4 °F 68.0 °F 62% 29.71 in 6.2 mi SSE 6.9 mph - N/A   Scattered Clouds
11:20 AM 82.4 °F 85.4 °F 68.0 °F 62% 29.71 in 6.2 mi SSE 9.2 mph - N/A   Scattered Clouds
11:50 AM 82.4 °F 86.3 °F 69.8 °F 66% 29.71 in 6.2 mi SSE 9.2 mph - N/A   Scattered Clouds
12:20 PM 82.4 °F 86.3 °F 69.8 °F 66% 29.71 in 6.2 mi South 9.2 mph - N/A   Scattered Clouds
12:50 PM 82.4 °F 85.4 °F 68.0 °F 62% 29.71 in 6.2 mi SSE 10.4 mph - N/A   Scattered Clouds
1:20 PM 82.4 °F 86.3 °F 69.8 °F 66% 29.71 in 6.2 mi South 13.8 mph - N/A   Scattered Clouds
1:50 PM 82.4 °F 86.3 °F 69.8 °F 66% 29.71 in 6.2 mi South 13.8 mph - N/A   Scattered Clouds
2:20 PM 82.4 °F 85.4 °F 68.0 °F 62% 29.71 in 6.2 mi South 13.8 mph - N/A   Partly Cloudy
2:50 PM 82.4 °F 85.4 °F 68.0 °F 62% 29.71 in 6.2 mi South 13.8 mph - N/A   Partly Cloudy
3:00 PM 83 °F - 67 °F 50% 29.70 in 6 mi South 13.8 mph - -   Scattered Clouds
3:20 PM 84.2 °F 88.4 °F 69.8 °F 62% 29.71 in 6.2 mi South 11.5 mph - N/A   Partly Cloudy
3:50 PM 82.4 °F 85.4 °F 68.0 °F 62% 29.71 in 6.2 mi South 11.5 mph - N/A   Partly Cloudy
4:20 PM 84.2 °F 88.4 °F 69.8 °F 62% 29.71 in 6.2 mi SSE 8.1 mph - N/A   Partly Cloudy
4:50 PM 84.2 °F 88.4 °F 69.8 °F 62% 29.71 in 6.2 mi South 8.1 mph - N/A   Partly Cloudy
5:20 PM 84.2 °F 88.4 °F 69.8 °F 62% 29.71 in 6.2 mi South 5.8 mph - N/A   Partly Cloudy
5:50 PM 84.2 °F 88.4 °F 69.8 °F 62% 29.68 in 6.2 mi SSE 5.8 mph - N/A   Partly Cloudy
6:20 PM 84.2 °F 89.6 °F 71.6 °F 66% 29.71 in - ESE 4.6 mph - N/A   Clear
6:50 PM 82.4 °F 87.2 °F 71.6 °F 70% 29.71 in - East 5.8 mph - N/A   Clear
7:20 PM 82.4 °F 86.3 °F 69.8 °F 66% 29.71 in - East 4.6 mph - N/A   Clear
7:50 PM 80.6 °F 83.9 °F 69.8 °F 70% 29.71 in - East 4.6 mph - N/A   Clear
8:20 PM 78.8 °F - 68.0 °F 69% 29.71 in - ENE 4.6 mph - N/A   Clear
8:50 PM 84.2 °F - 51.8 °F 33% 29.71 in - North 8.1 mph - N/A   Clear
9:00 PM 84 °F - 54 °F 25% 29.71 in 6 mi North 8.1 mph - -  
9:20 PM 86.0 °F - 50.0 °F 29% 29.74 in - NW 18.4 mph - N/A   Clear
9:50 PM 86.0 °F - 48.2 °F 27% 29.74 in - NW 20.7 mph - N/A   Clear
10:20 PM 86.0 °F - 48.2 °F 27% 29.77 in - NW 20.7 mph 32.2 mph N/A   Clear
10:50 PM 84.2 °F - 50.0 °F 30% 29.77 in - NW 19.6 mph - N/A   Clear
11:20 PM 84.2 °F - 50.0 °F 30% 29.77 in - NW 17.3 mph - N/A   Clear
11:50 PM 82.4 °F - 50.0 °F 32% 29.77 in - NNW 16.1 mph - N/A   Clear